RH
34 34 34 34 37 38 38 40 41 39 37 34 32 31 35 40 45 48 51 54 58 61 59 58 58 59 61 62 64 64 63 65 72 72 68 65 60 54 49 47 46 46 47 49 50 49 46 43 42 41 39 37 36 35 34 32 29 28 28 29 29 32 35 35 33 33 34 35 36 36 37 37 36 36 34 31 33 34 35 37 37 37 39 40 40
34 35 35 36 38 39 39 40 41 40 37 35 33 32 36 41 45 50 52 54 57 58 58 58 59 60 62 62 64 65 64 66 69 66 61 61 60 55 51 49 48 48 50 53 53 49 45 43 42 40 39 37 36 36 35 33 31 30 30 31 32 33 36 37 37 37 37 38 38 37 37 37 37 37 35 33 33 34 37 40 40 40 42 43 43
35 36 37 37 39 40 39 40 42 41 37 35 33 34 38 42 46 51 53 53 56 59 59 59 59 61 61 60 64 66 65 66 68 63 59 58 56 52 49 47 46 49 52 54 54 50 44 40 40 39 39 38 37 37 37 35 34 33 33 34 34 35 37 38 38 38 38 39 39 38 39 38 39 38 36 34 34 37 41 43 41 43 46 45 43
37 38 37 38 41 41 40 41 43 41 38 34 33 35 39 42 47 51 52 52 56 61 61 59 59 60 60 60 64 66 65 66 67 63 58 56 52 50 48 46 47 49 51 52 51 48 43 39 39 39 40 40 39 39 39 38 37 37 36 36 37 37 38 39 40 40 41 41 41 41 41 41 41 40 38 39 40 43 47 45 43 47 49 45 41
39 39 39 41 43 42 41 42 42 40 37 33 33 37 40 43 48 51 51 52 55 58 59 58 59 60 58 59 63 64 65 67 66 62 59 55 52 49 48 48 49 50 49 48 47 45 43 41 41 41 42 42 41 42 43 43 42 41 40 39 39 40 41 42 43 43 43 44 45 45 45 45 44 43 43 45 47 51 53 48 47 51 47 41 38
39 40 42 45 44 43 43 44 42 39 36 33 34 39 41 44 48 50 51 53 55 57 57 58 58 59 58 60 62 62 64 66 65 61 59 56 53 51 51 50 50 50 49 47 46 47 46 45 44 43 42 42 44 46 46 46 46 45 43 42 41 42 44 44 42 40 42 46 49 48 46 46 47 46 47 50 54 58 56 48 48 50 43 37 35
41 42 45 47 45 44 44 45 42 38 35 33 36 39 41 44 48 49 52 54 55 57 57 57 58 58 59 60 60 61 63 65 65 61 58 55 53 52 52 52 51 50 49 50 51 52 51 48 45 43 43 46 48 49 51 50 48 45 43 42 43 46 46 43 39 37 39 45 51 50 48 49 51 53 55 59 62 62 57 47 45 45 39 34 35
42 44 47 48 47 46 46 47 43 38 35 34 37 40 40 43 47 49 52 53 55 56 57 57 58 59 60 59 59 60 62 64 63 60 57 54 53 52 52 51 50 50 50 52 53 52 50 47 45 45 47 49 51 52 50 47 44 43 44 46 48 48 43 39 38 40 42 45 48 48 48 50 53 56 61 66 65 60 53 45 42 40 35 34 37
42 46 47 48 50 49 49 49 45 39 36 34 36 39 40 43 47 49 52 54 55 56 56 56 58 59 58 57 58 60 62 63 61 59 56 53 52 52 51 48 48 48 49 50 50 49 48 47 47 49 51 51 51 51 49 48 50 52 55 54 49 43 38 36 38 42 44 45 46 46 47 48 51 55 61 63 61 55 49 45 42 37 34 35 38
43 47 48 50 52 51 51 51 46 41 36 35 37 40 40 43 47 50 54 56 56 56 56 56 58 59 58 57 58 60 61 61 59 57 55 53 52 51 48 46 45 45 45 46 47 47 47 48 51 52 52 52 53 52 54 59 61 57 51 45 38 34 35 36 39 43 46 49 50 50 51 52 54 58 60 60 59 56 52 45 39 35 34 36 39
44 47 49 52 55 53 53 52 47 41 37 36 39 41 41 43 48 51 54 56 57 57 56 56 58 59 58 58 60 60 61 61 58 56 55 53 52 48 45 44 43 43 44 46 48 50 51 53 55 54 54 54 54 54 58 61 57 48 41 36 34 36 38 40 43 45 49 51 53 53 53 54 57 59 59 59 57 55 49 41 36 35 36 38 40
46 48 52 55 56 55 54 51 47 41 37 37 40 41 42 44 48 52 54 57 58 58 56 57 58 60 60 60 61 62 62 59 56 55 54 53 51 48 46 45 45 47 48 50 52 55 55 56 56 56 56 56 56 57 59 57 49 41 38 37 39 43 43 43 44 47 50 52 53 53 53 55 58 58 56 55 53 49 44 39 37 37 37 39 42
48 51 55 57 57 56 55 51 46 40 36 36 40 42 43 44 48 51 55 58 59 59 58 58 59 62 63 63 63 62 61 59 55 54 54 53 51 49 47 48 49 50 52 53 55 56 56 57 58 59 59 59 60 59 57 51 43 39 40 42 43 44 44 46 49 51 53 54 54 55 55 57 59 55 52 51 50 47 44 40 40 40 40 42 46
51 55 57 58 58 56 55 50 44 39 35 36 40 43 43 44 48 52 56 59 60 60 59 59 61 63 64 65 65 63 61 59 56 55 56 55 52 49 49 50 51 52 55 56 56 56 58 59 60 61 61 60 59 57 54 48 42 43 47 45 43 46 52 57 59 57 55 55 56 57 57 59 58 53 50 50 49 47 44 42 45 46 44 42 42
53 56 57 58 57 55 52 48 42 38 35 36 40 42 42 44 48 52 56 59 61 61 61 61 62 64 66 66 65 63 62 60 59 58 57 56 53 50 50 50 52 54 56 57 57 59 60 61 61 62 61 59 57 55 53 49 45 47 50 49 51 57 61 61 58 55 54 56 57 58 58 57 55 51 50 49 49 47 46 48 50 49 44 37 36
55 57 57 57 56 53 49 45 40 37 35 36 39 41 42 44 47 51 56 60 62 62 62 62 63 65 67 67 66 64 63 62 62 61 59 58 55 52 52 53 54 56 58 60 61 62 62 62 62 62 61 58 56 55 55 51 48 50 52 56 61 62 59 55 53 52 54 56 58 58 55 52 50 51 52 51 51 51 50 51 50 46 41 37 37
57 59 58 56 55 53 49 43 38 36 35 37 40 41 43 45 48 51 56 59 62 63 63 63 64 66 67 68 67 65 63 63 63 62 61 60 57 55 56 57 58 60 62 62 62 62 63 62 60 60 60 59 58 57 55 51 50 53 54 58 61 60 56 53 52 53 56 59 60 58 53 49 49 52 53 53 53 53 50 48 46 44 43 43 44
60 59 57 55 54 53 50 44 38 36 36 38 40 43 45 47 49 52 56 59 63 64 63 64 66 67 67 68 68 65 63 63 63 62 62 61 60 61 63 64 64 63 62 62 63 65 64 62 59 60 62 61 58 55 52 50 52 54 55 59 61 60 57 55 53 54 57 59 59 55 50 49 50 52 55 55 53 50 49 47 48 49 48 48 47
61 57 55 53 52 53 51 45 38 37 38 38 41 45 48 49 51 53 56 60 64 63 64 66 68 68 67 67 67 65 63 63 64 64 64 64 65 66 67 67 66 64 63 66 67 65 63 61 61 64 64 61 57 54 53 53 54 55 58 63 65 62 57 53 51 51 53 54 53 51 48 48 50 52 53 53 50 49 50 52 53 54 53 51 50
61 57 55 54 54 53 50 44 40 39 38 38 42 47 50 50 51 53 57 63 65 64 65 68 69 68 67 67 67 66 65 67 68 68 68 67 67 68 69 71 71 69 69 69 67 64 62 62 63 64 63 60 56 54 54 54 54 57 62 65 65 60 55 52 49 49 50 49 48 47 47 48 49 51 50 50 50 51 52 54 56 56 56 55 53
63 59 57 56 55 54 50 45 42 40 38 39 43 47 49 49 49 53 60 66 67 66 66 69 71 70 68 69 69 69 69 71 71 71 73 72 71 71 73 74 75 74 71 67 66 66 65 63 62 62 62 59 56 55 56 56 57 60 64 65 65 62 58 54 51 49 47 46 46 45 44 46 49 51 50 50 52 52 53 55 57 58 59 59 58
65 61 58 57 57 55 51 46 42 40 39 40 42 44 45 47 50 57 66 69 67 66 68 72 74 72 70 71 72 72 73 74 75 77 80 79 76 74 73 73 72 70 67 66 69 70 67 64 62 61 61 59 57 58 60 60 62 65 67 69 69 65 59 55 53 50 47 45 44 43 43 45 48 52 53 54 55 55 55 56 57 58 59 61 62
69 64 61 60 59 55 50 45 42 40 39 39 39 41 42 45 50 60 70 72 68 68 71 76 78 75 73 74 75 75 75 74 76 79 82 83 79 74 70 68 66 65 66 70 72 69 65 64 63 62 62 62 62 62 63 64 68 71 72 74 71 66 61 59 58 56 52 47 43 43 45 47 49 54 58 59 59 58 58 58 58 58 60 63 66
73 68 65 63 60 56 50 46 42 40 39 39 40 41 43 46 50 58 68 70 68 67 72 77 81 80 78 76 75 75 76 76 77 79 79 79 75 70 67 67 67 68 71 72 69 65 62 63 64 64 66 67 66 65 65 68 71 72 74 73 69 64 62 63 63 61 55 47 44 45 47 48 52 58 61 62 62 61 61 60 59 59 62 66 68
76 70 67 65 62 57 52 47 43 40 39 41 42 41 44 48 52 59 67 69 66 68 71 74 77 80 80 80 78 78 78 78 78 78 74 70 67 65 67 70 71 71 71 69 65 62 63 65 68 68 69 70 68 67 67 67 67 68 71 70 64 60 62 66 67 61 53 46 44 46 47 48 52 58 62 63 63 61 61 61 62 63 65 68 70
79 72 67 64 61 58 55 52 49 46 44 44 43 41 45 50 54 61 70 70 68 70 72 72 74 77 79 80 80 80 79 79 81 80 75 68 65 67 70 70 69 69 67 65 64 65 66 68 70 70 69 70 70 68 66 65 65 67 69 67 61 58 60 64 64 57 49 45 45 45 46 48 51 55 59 62 63 62 62 64 64 63 63 66 70
81 79 74 67 61 58 57 56 53 50 48 47 45 44 48 53 55 61 67 68 70 75 78 78 80 83 83 82 81 81 80 79 80 79 75 71 70 71 71 70 69 68 66 64 65 67 70 71 72 72 70 70 70 69 67 67 67 67 66 64 61 57 58 64 66 60 52 49 48 46 45 46 47 50 53 57 60 60 60 60 59 59 62 67 71
84 82 78 73 64 57 56 57 55 51 49 48 48 49 51 55 60 63 64 66 70 74 75 76 79 82 85 86 84 80 76 73 73 74 74 74 74 72 69 68 67 67 66 65 66 70 73 75 76 75 73 70 69 68 68 69 69 68 66 65 64 61 63 70 72 64 56 53 51 47 43 40 40 43 47 51 53 53 54 57 60 63 67 71 72
86 83 82 78 67 58 56 56 52 48 47 49 52 56 58 61 65 67 67 70 72 70 69 70 71 74 78 78 73 67 64 64 66 67 68 70 70 67 66 66 66 66 65 67 69 72 74 75 76 75 73 70 67 66 68 69 69 68 65 64 64 64 66 70 69 62 54 51 48 45 42 38 37 39 43 47 50 52 55 61 66 69 70 72 74
84 86 86 81 70 60 56 53 47 44 46 51 57 60 62 66 70 73 75 76 74 69 69 71 71 70 70 66 58 55 56 59 60 60 61 63 64 64 65 67 68 69 70 71 72 71 71 72 73 73 71 69 66 65 66 67 67 64 61 60 61 62 64 67 67 60 53 47 44 43 43 40 38 38 42 46 49 53 57 63 69 71 72 73 75
80 83 83 79 70 61 55 50 47 47 50 55 59 62 64 68 75 79 79 74 71 70 71 72 69 67 65 61 55 54 56 57 57 58 60 62 63 64 66 71 73 73 73 73 72 72 71 71 71 69 66 64 63 62 63 64 63 60 58 58 61 62 64 65 62 56 51 46 44 44 44 41 39 40 43 46 49 51 54 59 65 70 73 75 76
72 75 78 76 71 64 60 55 54 55 57 60 64 69 71 73 77 78 75 70 70 71 71 68 67 64 61 58 57 56 56 55 56 58 60 62 64 66 69 74 76 75 75 75 75 73 72 70 67 64 62 60 59 59 60 61 62 61 59 59 62 63 63 60 56 53 51 49 47 45 44 41 38 39 42 46 49 50 52 54 58 63 69 71 71
68 71 74 73 69 66 64 61 61 62 64 67 73 77 77 76 77 76 73 70 69 69 68 68 68 63 57 55 56 56 56 55 56 58 61 66 71 73 75 77 78 76 76 77 75 73 70 65 62 60 59 58 57 57 58 59 62 63 62 60 57 56 57 57 55 52 53 53 50 46 44 42 39 39 42 45 48 50 52 54 56 59 62 63 65
70 71 71 69 68 68 67 67 67 68 70 73 79 80 79 77 77 77 75 72 68 67 66 66 65 61 59 59 59 58 58 58 60 64 68 72 76 79 82 83 81 77 75 75 72 68 65 61 60 59 58 57 57 56 56 59 62 64 62 57 53 52 54 55 53 50 52 55 52 47 47 47 44 43 44 46 48 49 52 54 56 58 59 60 64
77 76 72 72 74 74 71 69 69 72 76 79 81 79 77 75 75 73 71 69 67 65 63 62 61 62 65 67 65 62 61 63 67 74 78 79 80 82 83 82 77 72 70 68 63 60 60 61 61 59 57 57 58 58 59 62 64 64 60 55 54 55 55 54 50 48 53 58 53 47 48 50 47 45 46 47 48 49 51 53 56 57 59 61 65
86 85 80 80 80 76 72 72 73 76 78 81 80 77 74 72 70 68 65 64 63 61 61 61 64 66 67 67 65 64 65 69 75 80 81 80 78 77 77 75 71 66 62 59 57 58 60 61 59 57 55 55 56 58 60 62 62 62 59 56 57 58 55 51 46 43 48 55 53 48 50 51 49 46 46 46 47 48 51 54 56 56 58 62 66
91 90 86 86 84 79 78 80 81 79 77 76 74 72 70 67 65 63 61 60 58 58 58 61 65 67 67 66 66 67 69 72 76 77 77 76 75 72 70 69 68 64 59 56 57 59 59 58 56 54 54 55 56 57 57 56 55 55 53 52 54 54 53 50 47 45 46 51 53 53 55 55 51 46 45 45 46 48 52 55 56 57 59 61 64
90 91 90 89 86 81 79 81 81 78 75 72 69 67 66 63 61 60 58 58 59 60 62 63 65 67 68 69 71 72 72 73 74 74 74 74 73 70 66 64 63 62 60 59 58 58 58 58 56 54 54 55 55 53 50 46 43 42 41 41 41 42 43 46 49 50 52 55 57 58 58 55 49 45 43 43 45 48 53 56 58 58 59 60 61
91 92 92 91 86 80 77 76 75 72 69 67 66 64 63 61 59 58 59 60 62 64 67 69 70 71 72 73 74 74 74 75 76 76 73 70 69 68 66 64 61 59 58 58 57 58 60 60 58 57 56 55 52 46 41 37 35 33 33 33 34 36 38 43 46 49 50 51 52 52 53 51 47 44 42 43 47 50 53 57 58 58 59 60 61
92 91 90 87 83 78 74 72 69 66 65 66 65 63 62 61 59 59 61 65 67 70 72 74 73 73 73 73 74 74 75 76 75 72 68 65 65 65 65 62 58 56 57 58 58 58 60 60 58 55 53 51 47 43 39 36 33 31 31 31 33 37 41 43 44 44 44 44 45 48 51 53 51 48 45 45 47 50 54 57 58 59 60 61 62
85 83 82 80 77 73 70 67 66 65 65 65 64 64 63 62 62 64 67 70 73 75 75 75 73 71 71 71 71 70 70 69 66 64 62 62 62 62 60 58 57 57 59 61 59 57 57 56 55 52 49 46 44 42 40 37 34 32 32 32 35 39 41 41 41 42 42 43 46 50 53 54 53 50 47 45 46 50 53 54 55 57 60 62 64
79 75 73 72 71 69 66 64 64 64 65 66 67 67 67 66 69 72 75 75 75 75 74 72 70 67 65 64 62 60 60 60 60 61 62 62 62 61 60 60 60 61 61 60 55 51 48 47 48 48 46 44 43 42 41 38 34 32 32 34 36 38 38 39 40 41 42 42 44 46 48 50 49 47 45 43 44 48 51 52 54 58 62 65 67
76 73 71 70 68 67 65 65 66 66 67 68 71 72 73 74 76 77 76 74 73 72 69 66 63 59 57 56 56 56 57 59 60 61 62 62 62 62 62 62 62 60 56 51 47 44 43 43 43 43 42 42 41 41 39 38 35 34 34 35 36 37 38 39 40 40 40 41 43 44 44 45 46 46 45 45 46 49 51 54 58 62 66 69 71
77 77 76 75 73 72 72 71 71 71 72 74 75 76 76 76 75 73 71 69 67 64 60 57 55 54 55 56 57 57 59 60 61 62 62 63 63 63 62 60 56 51 47 43 41 40 41 40 40 41 42 43 42 41 41 40 40 39 38 37 36 37 38 39 39 38 40 43 46 46 46 45 45 46 47 48 50 52 55 58 63 66 69 70 70
80 80 80 79 78 76 76 75 75 75 75 75 75 73 72 69 67 65 63 61 57 56 55 55 56 56 57 58 59 60 61 62 62 63 63 62 60 58 55 51 46 43 40 39 39 38 38 38 39 41 42 43 42 41 41 41 41 40 38 37 36 37 37 38 38 40 44 48 49 47 47 46 46 46 47 49 52 56 59 63 66 68 68 68 69
82 80 78 76 75 74 74 74 74 73 72 71 69 66 65 63 61 59 58 57 55 55 55 55 56 56 57 58 59 60 60 61 61 60 59 56 53 50 47 45 43 41 40 39 39 38 38 39 38 38 37 38 38 38 38 38 38 38 37 35 34 34 35 36 39 43 48 52 51 48 46 45 45 46 49 52 56 59 62 65 67 67 67 68 69
77 74 72 70 70 70 71 70 69 68 66 65 63 61 60 59 59 57 57 57 56 56 55 55 56 56 57 57 56 55 55 54 52 51 50 48 46 45 44 43 43 42 41 40 40 39 38 38 37 36 35 35 34 35 35 36 36 36 36 35 34 34 35 37 41 47 53 55 53 50 47 46 47 49 52 55 58 61 63 66 67 68 69 70 71
70 68 68 67 67 67 66 65 63 63 62 61 61 60 59 58 58 58 58 59 58 58 58 59 58 56 54 51 49 46 44 43 42 42 43 44 43 42 40 40 40 41 41 40 40 39 38 38 37 36 34 32 31 31 31 31 31 31 32 33 34 35 36 39 43 49 54 55 54 51 48 46 48 50 54 56 59 62 63 67 69 70 70 70 71
67 66 66 65 64 63 62 60 59 58 58 58 59 59 59 61 62 62 62 62 61 60 59 57 53 48 43 40 39 37 36 36 37 38 39 40 40 39 37 38 39 41 41 40 39 38 38 38 38 36 33 31 30 29 29 29 28 27 26 27 30 33 36 39 42 47 51 53 53 51 49 48 49 51 54 56 58 61 64 67 70 69 69 69 70
65 64 64 64 63 62 60 59 58 57 57 57 58 59 62 65 66 65 63 61 58 55 52 47 42 38 35 33 33 34 35 37 38 37 37 38 38 37 36 37 39 41 40 39 38 38 39 39 38 36 33 31 30 31 30 29 28 28 27 27 28 30 32 35 38 41 45 48 49 49 48 48 48 49 52 54 57 61 64 66 66 66 67 69 71
68 67 67 66 64 63 62 62 62 62 63 65 66 66 66 67 67 65 61 58 53 47 42 38 36 34 34 34 34 34 36 37 38 38 38 39 39 37 36 36 38 39 39 38 38 37 38 38 38 36 32 30 30 31 30 30 31 32 32 32 31 31 32 35 37 39 42 44 46 47 47 48 48 50 53 56 59 61 62 64 65 67 69 71 72